Wind_Speed
5 17 19 14 17 15 13 12 13 13 12 11 10 9 8 7 6 6 5 4 4 4 6 7 9 11 13 13 12 12 13 14 16 23 24 14 17 17 12 14 13 14 13
9 11 16 17 20 11 11 11 14 14 13 13 12 11 10 10 9 9 10 8 8 9 9 10 11 12 12 15 16 15 15 15 15 21 20 11 17 17 16 16 16 15 14
11 11 6 4 7 7 9 12 13 14 14 14 14 14 14 14 15 14 14 14 15 15 14 14 13 13 14 19 20 20 19 16 16 20 21 17 16 16 16 17 17 17 16
12 11 9 8 10 10 13 14 15 17 18 19 19 19 20 20 21 21 21 20 21 21 19 18 18 15 12 17 19 21 23 20 17 18 21 17 15 15 16 17 17 17 18
12 13 14 14 16 17 18 18 19 21 22 23 24 24 25 26 26 26 26 27 28 27 24 25 25 24 21 23 23 24 23 21 22 19 20 20 15 14 14 18 17 17 17
8 11 14 18 20 20 20 21 23 24 26 27 28 27 29 30 30 31 31 33 30 31 30 29 35 33 23 33 25 24 20 21 23 23 20 21 18 15 16 17 17 18 18
13 12 14 13 18 24 26 27 28 29 31 34 35 35 37 37 37 37 35 38 37 30 25 24 29 26 24 17 16 16 16 19 21 20 20 21 20 16 17 17 18 18 17
10 9 13 14 16 17 19 21 23 25 27 30 32 32 32 32 32 34 35 41 37 37 27 25 18 12 2 9 7 10 10 13 20 20 21 22 20 17 18 18 19 19 19
5 4 5 7 9 11 13 15 18 21 24 27 30 32 33 33 34 34 34 36 35 31 25 23 18 14 13 9 15 17 24 22 21 22 23 22 20 18 20 20 19 19 19
9 9 9 8 8 8 10 11 13 15 18 20 22 23 26 28 31 32 33 34 33 30 27 22 21 16 20 23 20 20 23 24 26 25 25 23 23 22 21 20 21 20 20
6 11 13 14 16 17 19 20 22 24 24 24 25 25 25 24 24 25 28 30 28 27 24 21 22 22 23 24 25 26 24 29 29 26 25 26 27 26 24 22 21 21 21
12 16 19 21 23 25 25 27 30 32 34 32 27 25 24 25 24 23 25 27 28 27 24 21 22 23 26 27 29 31 31 32 35 34 31 31 31 29 26 24 24 22 24
14 16 19 23 25 27 30 31 34 36 35 28 27 24 19 20 26 25 23 25 27 27 26 24 24 24 27 31 31 32 34 37 35 37 34 32 33 30 28 28 26 24 27
20 21 23 26 30 33 33 35 37 34 39 38 32 19 16 18 18 25 27 22 25 26 27 27 27 27 28 30 32 33 35 37 37 38 35 34 34 35 30 29 28 27 27
26 25 26 28 32 35 37 38 41 42 37 32 24 22 22 22 20 25 25 27 26 26 28 29 30 29 29 29 32 33 33 36 36 36 38 39 38 31 33 31 33 29 29
27 26 27 31 33 36 33 33 30 30 32 25 21 23 23 25 26 26 27 28 29 32 31 30 30 31 31 30 31 32 34 35 33 35 38 41 37 32 35 35 36 32 31
28 29 32 35 37 39 35 24 24 23 23 24 24 23 23 23 27 28 28 28 30 31 31 32 32 33 32 33 33 34 34 33 33 36 37 42 44 32 37 38 38 36 35
32 35 39 38 34 30 27 28 21 19 21 22 23 26 27 29 29 28 30 31 32 32 33 33 33 34 34 33 33 34 35 34 34 36 36 39 38 36 39 39 41 41 39
36 34 30 26 26 27 27 25 26 27 28 29 29 29 29 33 33 32 33 31 34 37 36 35 34 36 38 39 37 37 38 38 36 36 37 39 37 41 39 40 41 43 42
27 24 23 23 25 27 28 28 28 30 30 30 31 32 34 36 35 35 37 38 38 36 37 39 37 37 38 38 37 37 39 40 42 41 41 39 39 41 45 42 43 48 47
21 25 25 23 25 25 27 27 28 29 31 34 36 37 38 38 38 37 36 36 36 39 42 42 40 41 41 41 40 40 39 40 40 42 41 41 39 43 43 50 47 49 45
22 23 24 24 25 26 26 26 28 31 34 36 37 36 33 34 35 37 36 35 34 34 35 39 42 43 44 46 44 43 42 41 39 37 39 38 44 39 47 46 51 50 45
23 23 23 23 24 23 24 25 27 30 32 30 31 31 32 33 35 36 35 35 33 32 32 34 38 42 45 47 49 48 46 44 42 40 38 37 35 45 39 50 37 44 50
21 21 20 20 20 22 22 22 26 28 28 27 29 30 33 33 37 37 37 35 31 31 32 33 35 33 33 34 42 49 49 44 45 44 43 39 38 34 39 34 38 31 44
16 15 16 18 18 20 21 24 24 22 24 29 31 32 34 34 36 38 36 32 27 28 27 35 32 30 28 30 36 44 46 42 43 44 44 43 42 40 41 38 34 31 27
12 13 13 16 17 18 19 21 23 23 26 29 31 33 35 36 37 38 34 30 25 25 30 28 28 23 26 27 28 33 39 42 42 44 45 47 46 46 45 41 40 40 39
Wind_Direction
250 334 282 284 263 245 235 234 239 240 243 249 256 263 270 280 291 294 294 305 320 309 294 288 283 278 272 267 265 258 252 234 213 256 263 277 276 279 282 283 286 289 291
266 312 302 257 227 234 242 237 244 250 251 254 257 260 266 273 280 285 291 302 294 293 301 307 315 317 308 286 265 261 259 251 244 240 269 271 268 275 281 283 288 287 281
256 266 317 83 191 220 236 239 243 249 249 251 255 261 263 268 272 274 278 284 289 295 299 297 299 304 312 320 309 269 253 255 250 256 264 267 268 271 279 281 282 284 279
248 257 269 243 235 231 235 240 246 251 251 255 260 263 267 268 271 275 278 281 283 284 285 281 274 287 332 305 292 286 260 250 251 252 265 265 267 271 274 277 279 277 273
259 265 266 267 252 245 246 252 257 258 262 264 267 271 274 275 276 280 282 283 279 274 268 264 256 256 292 300 292 276 266 248 251 249 251 266 263 270 273 275 276 271 267
268 268 260 259 264 262 260 262 265 267 267 268 272 274 279 278 281 282 283 281 263 250 250 248 256 255 284 296 269 258 261 250 248 252 251 254 264 270 271 275 274 275 272
326 285 263 254 253 258 263 266 266 270 272 274 276 278 279 279 279 282 280 268 259 236 322 305 340 275 318 272 216 250 257 258 255 251 250 261 273 273 272 273 269 271 269
323 271 263 265 265 267 271 275 277 277 276 276 277 279 280 281 284 282 277 280 288 300 311 314 320 308 286 200 243 248 272 275 261 249 245 248 256 261 266 263 267 265 260
359 358 335 316 302 295 289 285 285 284 284 282 280 278 278 278 278 279 278 280 285 289 292 291 289 286 250 206 222 236 258 265 257 252 250 251 254 258 262 264 266 264 263
63 52 41 23 7 351 345 338 333 320 311 302 294 288 286 282 278 277 277 279 283 285 284 274 266 260 258 249 250 256 248 250 263 259 251 247 252 255 258 262 264 263 261
4 6 355 347 342 341 339 336 333 331 326 316 302 294 287 283 282 280 277 277 278 278 279 275 266 253 248 243 249 255 259 246 253 268 255 249 246 250 255 257 259 259 259
327 331 331 331 330 328 326 326 327 326 323 320 316 304 295 288 278 279 280 279 277 276 276 271 264 259 254 246 245 247 250 254 259 263 265 259 257 250 250 252 254 253 250
309 312 310 314 313 314 317 316 316 322 326 319 312 305 293 293 301 288 272 275 274 274 271 267 262 257 253 254 253 251 249 249 254 260 262 264 263 255 246 246 247 251 257
296 300 304 307 306 308 310 310 310 309 308 306 307 300 289 277 279 284 288 272 275 274 273 268 261 256 253 254 254 252 252 250 251 256 261 259 255 255 247 243 244 246 253
288 294 297 297 297 304 307 307 306 306 305 306 297 288 289 279 264 269 274 281 278 272 273 271 269 266 263 261 260 260 257 257 253 251 256 252 249 256 247 244 240 240 251
285 287 286 293 296 300 301 300 301 299 301 305 292 289 286 286 284 280 277 274 273 273 270 269 269 268 267 266 264 262 260 259 258 258 256 252 256 256 250 246 242 234 246
286 287 289 296 299 300 301 300 299 305 307 311 305 299 292 287 285 284 283 279 275 272 271 267 264 263 265 266 266 264 263 262 259 260 254 254 257 254 247 246 242 238 241
287 291 292 297 298 298 300 308 312 309 305 308 305 305 302 294 287 283 283 281 277 274 272 267 264 262 259 263 266 263 261 260 256 255 258 254 260 251 249 249 246 241 240
288 289 294 296 298 302 306 310 310 308 308 308 306 304 301 298 297 294 289 283 278 276 274 271 267 267 266 264 268 264 258 256 256 254 256 258 253 255 248 248 246 245 242
289 291 294 298 299 302 304 305 306 306 306 306 307 305 303 301 297 294 291 290 285 277 274 273 271 266 267 266 263 262 259 254 253 252 251 256 252 250 255 242 244 244 244
295 297 303 304 302 303 307 312 311 311 311 311 311 309 308 305 302 299 293 287 280 279 278 276 269 266 263 262 263 262 259 255 254 256 254 251 257 248 249 257 238 243 244
295 297 300 302 306 309 311 313 313 315 315 316 316 316 315 313 313 308 300 294 288 281 275 274 273 272 266 260 255 255 256 251 250 249 252 256 253 253 249 243 257 242 240
295 303 305 305 308 314 314 316 319 323 323 319 319 320 321 319 318 317 310 300 289 284 282 284 282 278 271 262 253 249 249 249 245 246 251 254 259 243 244 254 241 247 239
300 304 307 310 314 315 318 322 323 329 334 335 334 330 326 322 320 322 319 308 290 287 285 289 289 289 280 259 255 246 245 245 243 243 246 249 250 250 243 250 251 263 242
308 311 309 312 317 322 324 327 326 327 337 338 335 335 337 332 329 327 326 321 300 290 291 297 294 286 288 265 262 256 246 245 243 244 244 245 245 248 246 244 246 227 245
311 314 319 323 325 324 330 334 337 338 339 341 339 339 337 336 336 334 326 317 310 293 298 296 298 290 287 289 272 260 250 248 247 244 244 246 246 249 245 244 239 238 238
Height
3214 3214 3213 3213 3215 3216 3217 3219 3220 3220 3220 3221 3221 3221 3222 3222 3222 3221 3221 3220 3220 3220 3219 3218 3217 3217 3216 3216 3216 3216 3216 3217 3220 3216 3216 3216 3217 3216 3216 3215 3215 3214 3212
3214 3212 3209 3204 3212 3214 3215 3217 3218 3218 3219 3220 3220 3220 3221 3221 3220 3220 3220 3219 3218 3218 3217 3216 3216 3215 3214 3213 3212 3212 3213 3213 3214 3213 3211 3213 3213 3214 3213 3213 3212 3211 3209
3211 3211 3211 3210 3212 3212 3213 3215 3215 3216 3217 3217 3218 3218 3218 3218 3218 3217 3217 3217 3216 3216 3215 3214 3213 3211 3210 3210 3211 3209 3209 3209 3210 3210 3208 3209 3210 3210 3210 3210 3210 3208 3206
3210 3210 3210 3210 3211 3210 3211 3212 3213 3213 3214 3215 3215 3215 3215 3214 3214 3214 3214 3214 3212 3211 3211 3209 3207 3205 3204 3203 3203 3206 3204 3204 3205 3206 3205 3205 3205 3207 3206 3206 3206 3206 3204
3209 3209 3208 3208 3208 3209 3209 3209 3210 3211 3211 3212 3212 3211 3211 3210 3210 3209 3209 3208 3206 3204 3203 3201 3199 3196 3196 3196 3197 3198 3200 3200 3200 3201 3202 3201 3201 3201 3203 3202 3202 3202 3202
3207 3207 3206 3206 3207 3206 3206 3207 3207 3207 3207 3207 3207 3206 3206 3205 3205 3204 3203 3201 3195 3192 3191 3191 3188 3188 3189 3187 3188 3191 3195 3196 3196 3196 3198 3198 3197 3198 3198 3198 3199 3198 3199
3204 3203 3203 3203 3203 3204 3204 3204 3204 3203 3203 3202 3202 3201 3199 3198 3198 3197 3195 3187 3176 3160 3184 3180 3180 3178 3176 3174 3180 3186 3190 3192 3194 3193 3194 3194 3194 3195 3195 3196 3195 3195 3195
3200 3198 3199 3199 3200 3200 3200 3199 3198 3198 3197 3196 3195 3194 3192 3191 3190 3188 3185 3182 3177 3176 3181 3183 3178 3177 3175 3177 3180 3183 3185 3185 3188 3188 3189 3189 3189 3191 3191 3191 3191 3192 3191
3198 3196 3196 3197 3197 3197 3196 3196 3194 3193 3191 3190 3188 3187 3185 3184 3182 3181 3181 3178 3177 3179 3179 3177 3178 3175 3175 3173 3176 3179 3181 3182 3182 3182 3182 3185 3185 3185 3186 3186 3186 3187 3187
3198 3197 3197 3198 3197 3196 3195 3193 3191 3189 3187 3184 3181 3179 3177 3175 3174 3173 3171 3169 3170 3170 3171 3172 3172 3170 3171 3171 3171 3172 3172 3175 3176 3176 3176 3178 3179 3180 3180 3181 3182 3181 3182
3197 3196 3196 3196 3195 3193 3192 3190 3188 3185 3182 3179 3176 3173 3170 3169 3166 3165 3164 3163 3162 3162 3164 3164 3163 3164 3165 3165 3166 3166 3168 3168 3169 3169 3169 3170 3172 3173 3174 3175 3176 3177 3176
3194 3193 3193 3192 3191 3189 3187 3185 3182 3178 3175 3170 3166 3165 3162 3159 3158 3158 3155 3155 3155 3155 3156 3157 3157 3156 3156 3158 3158 3160 3161 3161 3160 3161 3162 3162 3164 3166 3168 3170 3171 3171 3170
3190 3189 3188 3187 3186 3184 3182 3179 3176 3171 3167 3166 3164 3160 3160 3158 3153 3149 3149 3148 3147 3146 3148 3149 3149 3150 3149 3149 3150 3151 3152 3153 3153 3152 3154 3156 3157 3160 3161 3163 3164 3166 3164
3185 3184 3182 3181 3179 3177 3176 3173 3169 3166 3162 3159 3156 3154 3154 3154 3153 3147 3141 3141 3140 3140 3140 3140 3141 3141 3141 3141 3142 3143 3142 3143 3145 3146 3147 3149 3149 3150 3153 3156 3158 3160 3160
3180 3179 3177 3176 3173 3171 3168 3165 3161 3157 3152 3149 3147 3146 3144 3143 3143 3140 3139 3135 3133 3133 3131 3130 3130 3131 3132 3133 3133 3134 3135 3135 3136 3138 3138 3139 3138 3142 3144 3147 3150 3152 3154
3174 3173 3172 3170 3168 3165 3161 3158 3155 3149 3144 3142 3140 3138 3138 3135 3133 3132 3131 3129 3127 3124 3123 3122 3122 3122 3122 3123 3123 3124 3125 3126 3128 3128 3129 3129 3131 3133 3136 3139 3142 3144 3147
3168 3166 3164 3162 3159 3156 3152 3148 3144 3142 3138 3135 3133 3131 3129 3128 3125 3123 3122 3120 3118 3117 3116 3114 3114 3113 3114 3113 3113 3114 3115 3116 3118 3119 3120 3120 3122 3125 3126 3130 3133 3135 3138
3160 3158 3155 3154 3151 3147 3143 3140 3137 3136 3133 3130 3127 3124 3122 3118 3115 3114 3112 3110 3109 3107 3106 3105 3104 3104 3103 3104 3103 3103 3104 3105 3106 3108 3109 3111 3113 3115 3116 3119 3123 3126 3129
3152 3150 3148 3145 3142 3139 3136 3133 3131 3128 3125 3122 3119 3116 3113 3108 3106 3104 3101 3099 3097 3095 3095 3094 3095 3094 3093 3093 3093 3093 3093 3093 3095 3097 3098 3100 3102 3104 3105 3109 3112 3116 3119
3143 3142 3141 3138 3135 3131 3128 3126 3123 3120 3117 3113 3110 3106 3101 3097 3095 3093 3089 3086 3083 3083 3082 3081 3081 3082 3081 3080 3081 3081 3081 3082 3084 3085 3087 3088 3090 3093 3094 3096 3101 3103 3107
3137 3133 3132 3130 3127 3125 3122 3119 3115 3112 3107 3103 3099 3095 3090 3085 3081 3078 3075 3073 3071 3069 3066 3066 3066 3067 3067 3067 3067 3067 3068 3070 3071 3073 3074 3077 3079 3079 3084 3085 3086 3091 3097
3130 3128 3126 3123 3121 3118 3115 3112 3108 3104 3099 3094 3090 3085 3080 3075 3070 3065 3061 3058 3056 3054 3053 3050 3050 3050 3050 3051 3053 3054 3054 3056 3059 3062 3064 3065 3066 3069 3072 3071 3074 3077 3084
3124 3122 3119 3117 3114 3112 3108 3105 3101 3097 3091 3086 3082 3077 3072 3066 3061 3055 3050 3045 3042 3040 3039 3038 3034 3032 3032 3032 3033 3036 3038 3042 3047 3050 3051 3053 3054 3056 3057 3058 3060 3065 3071
3118 3115 3113 3111 3108 3106 3102 3099 3095 3091 3085 3080 3074 3069 3063 3058 3052 3046 3040 3034 3031 3029 3027 3025 3022 3017 3015 3015 3016 3018 3023 3028 3031 3035 3038 3040 3042 3045 3047 3051 3054 3056 3059
3112 3110 3108 3106 3103 3100 3097 3093 3089 3085 3080 3074 3069 3063 3057 3051 3044 3038 3031 3025 3021 3019 3017 3014 3010 3008 3004 3004 3004 3005 3008 3014 3018 3021 3025 3027 3030 3033 3037 3041 3043 3046 3049
3107 3105 3103 3101 3098 3096 3093 3089 3084 3080 3075 3070 3064 3058 3052 3045 3038 3030 3023 3019 3015 3011 3008 3005 3001 2999 2997 2995 2993 2994 2996 3000 3004 3007 3009 3012 3016 3018 3023 3027 3031 3034 3039